Simultaneous Nadir Overpasses (SNOs) Predictions

Prediction of SNOs between AQUA and NOAA-19 Satellite Orbit:

Table of predicted SNOs for the next 14.0 days since TLE Epoch: 8/20/2016
Index Date (AQUA) Time (AQUA) Lat,Lon (AQUA) SZA (AQUA ) Date (NOAA-19) Time (NOAA-19) Lat,Lon (NOAA-19) SZA (NOAA-19 ) Distance(km) Time Diff (sec)
1 08/21/2016 06:10:47 -80.91,-132.50 108.82 08/21/2016 06:10:36 -80.90,-132.34 108.84 3.08 11
2 08/23/2016 11:44:30 80.91, -35.96 71.92 08/23/2016 11:44:33 80.90, -35.88 71.91 1.75 3
3 08/25/2016 16:28:46 80.90,-106.89 72.64 08/25/2016 16:27:34 80.91,-106.95 72.68 1.57 72
4 08/25/2016 17:18:13 -80.91, 60.65 107.34 08/25/2016 17:18:39 -80.90, 60.65 107.35 0.64 26
5 08/27/2016 22:02:29 -80.90, -10.31 106.61 08/27/2016 22:01:40 -80.91, -10.34 106.58 1.20 49
6 08/27/20
